Theta_e
319 311 314 325 326 328 329 331 330 339 338 331 332 333 333 331 334 340 338 340 341 334 324 320 319 317 317 316 313 311 312 314 316 315 315 315 315 316 318 319 322 325 329 330 331 331 331 333 334
319 317 321 326 328 330 330 328 337 339 337 335 333 334 330 337 337 336 340 340 339 334 324 321 318 317 317 317 315 312 312 315 316 317 317 317 318 319 319 320 323 329 333 333 333 334 335 335 335
320 322 320 325 331 332 330 332 337 340 341 339 332 330 331 334 337 338 339 340 339 336 326 323 317 317 317 318 315 312 313 315 317 318 319 319 321 323 324 325 327 332 336 337 337 337 337 336 336
322 326 322 330 335 335 333 333 339 340 341 339 335 332 332 333 333 335 340 337 338 339 333 324 316 316 317 317 316 314 313 315 317 319 320 320 322 325 325 328 331 335 336 338 339 340 339 338 336
324 323 324 329 332 334 331 330 337 340 340 338 335 335 332 332 334 335 336 339 336 339 338 330 323 317 318 317 317 315 314 315 317 319 320 321 322 324 325 327 331 337 339 339 338 339 339 337 336
322 323 328 330 331 331 331 330 330 331 329 329 333 334 332 333 333 334 334 335 337 336 337 337 328 323 321 318 318 317 315 316 318 319 320 321 322 323 323 328 333 337 339 338 338 337 336 337 335
322 323 328 329 330 331 331 329 328 329 329 331 331 332 332 333 333 333 334 335 335 339 337 340 335 329 324 320 320 319 317 316 318 319 321 322 323 322 321 326 330 335 336 330 326 326 329 330 332
323 322 326 327 331 333 332 330 329 330 330 330 330 331 332 332 333 332 333 332 334 338 339 337 339 337 331 322 320 321 320 317 318 320 321 324 325 324 322 324 329 330 329 327 329 329 326 324 328
326 322 323 327 329 331 330 330 330 331 331 331 331 331 330 331 330 330 331 331 331 335 339 339 338 338 336 331 323 321 322 320 319 320 322 325 326 325 323 333 334 335 334 332 331 330 326 321 324
334 322 323 324 326 328 328 329 330 331 332 332 331 331 332 331 331 330 329 328 329 329 340 341 338 337 338 336 333 325 322 323 324 324 323 326 326 326 329 335 335 336 334 333 330 328 323 326 326
330 331 325 325 325 327 328 329 330 331 332 332 332 331 331 330 329 329 330 330 330 329 331 340 339 337 339 340 339 336 327 324 328 328 325 326 327 333 336 334 335 334 334 332 331 331 330 328 331
328 328 329 326 326 326 328 328 330 331 330 330 329 329 330 330 328 328 328 329 329 330 329 334 341 340 344 345 343 340 336 332 329 330 326 331 336 338 339 336 335 336 335 334 332 332 332 331 332
326 325 326 328 328 327 328 328 329 330 330 329 329 327 327 327 328 330 330 329 330 330 329 329 336 343 345 347 345 343 341 340 337 333 331 333 338 339 337 333 333 334 334 333 333 332 330 331 331
321 326 326 326 327 328 329 329 328 329 328 328 328 326 326 327 327 328 330 330 330 330 328 327 335 340 346 347 345 344 343 341 340 340 338 337 339 339 335 335 337 335 334 333 333 332 331 330 329
319 321 322 325 326 325 326 327 327 327 327 328 328 328 327 327 327 327 329 329 330 332 328 329 335 339 342 346 345 344 344 343 344 341 340 341 342 339 335 337 335 335 334 333 332 331 332 331 331
319 319 322 322 323 325 325 328 327 326 328 328 328 328 328 326 327 329 330 329 332 330 329 330 336 339 341 344 345 343 344 345 344 342 342 342 340 335 334 336 335 335 334 334 333 332 331 331 331
320 321 321 323 323 324 326 327 328 327 327 328 328 328 328 327 326 327 329 330 328 327 327 331 337 339 341 342 344 346 344 344 343 338 337 336 334 334 335 335 336 336 336 336 333 332 331 331 330
321 323 322 323 323 325 325 326 326 326 326 327 327 327 327 327 326 326 327 328 328 328 329 333 337 341 345 347 346 344 346 343 338 337 335 334 334 334 335 335 335 335 335 335 333 331 332 331 330
319 323 323 323 323 324 324 325 325 326 325 325 326 325 326 326 325 326 330 331 328 333 337 335 340 347 348 350 348 346 344 341 339 337 333 334 334 335 336 336 335 335 336 334 333 332 331 330 330
316 316 317 320 322 322 324 325 325 326 325 325 326 326 325 325 325 326 329 331 335 336 338 342 344 350 350 349 348 346 344 338 335 334 333 333 335 336 335 334 333 333 332 332 331 330 330 329 328
315 315 316 316 318 319 320 321 322 323 324 325 325 325 325 326 326 326 325 333 338 340 343 346 351 351 350 349 347 346 341 337 336 334 333 334 334 334 334 333 332 332 332 331 330 330 329 329 328
316 316 316 317 318 319 320 322 322 322 324 325 325 324 323 323 325 324 324 336 339 342 342 343 346 350 349 347 346 342 337 336 335 335 335 334 334 334 334 332 331 331 331 331 331 330 329 329 328
315 317 317 318 317 318 320 321 321 322 325 324 323 323 323 323 324 324 324 338 340 341 340 342 346 347 346 345 340 338 335 333 334 334 334 335 335 334 333 333 332 332 332 331 331 330 330 329 328
314 316 317 317 317 318 319 320 321 321 322 324 324 323 323 323 324 328 338 339 340 342 343 345 345 344 340 339 336 334 334 336 334 335 335 334 334 333 333 333 331 330 331 330 331 331 330 328 328
312 312 316 318 318 319 318 321 321 321 323 324 323 323 323 325 332 339 339 338 339 341 343 343 342 340 338 336 335 334 335 335 336 335 335 334 334 333 332 332 330 330 331 331 332 330 329 329 329
309 313 315 319 320 319 318 320 321 321 322 323 323 322 331 338 338 338 337 337 339 341 341 341 340 337 337 336 335 335 334 335 335 334 332 333 332 333 330 332 332 332 333 333 332 330 330 330 329
309 310 314 315 318 318 319 319 319 320 320 324 324 326 338 338 338 338 336 337 339 339 339 340 338 337 337 334 335 334 335 335 334 334 333 333 333 329 332 332 332 333 333 332 332 331 329 328 327
314 311 315 314 318 320 321 320 321 323 323 322 326 330 338 337 337 336 336 337 338 338 339 339 338 337 335 334 335 334 336 334 334 333 332 332 332 332 332 332 333 331 331 330 330 329 328 327 327
315 311 311 314 315 319 322 321 322 325 324 324 326 337 337 336 336 336 337 337 337 339 338 338 337 336 335 334 334 332 332 334 332 332 331 331 331 330 330 330 331 332 331 330 331 330 328 324 325
313 315 312 315 317 318 320 322 327 330 326 325 335 337 335 336 335 337 336 336 336 337 338 337 336 335 332 334 334 334 334 333 331 331 330 329 328 328 329 331 331 331 331 330 331 331 330 325 326
Wind_Speed
8 4 1 2 2 2 4 8 7 14 9 4 5 6 1 4 5 5 24 26 22 25 32 31 29 26 23 21 19 18 16 15 13 11 9 7 6 5 5 4 3 3 3 3 2 2 2 3 3
6 3 2 2 2 2 5 10 4 4 3 15 6 1 6 8 13 7 15 27 24 24 33 32 30 27 24 22 20 19 18 16 14 12 10 8 7 6 5 4 4 5 6 4 4 4 5 5 5
7 7 1 4 4 6 5 5 3 4 13 25 8 3 3 5 4 7 27 26 23 23 30 31 30 27 25 23 22 21 20 17 15 13 10 8 8 7 5 4 4 6 7 7 7 7 7 8 9
5 2 3 1 10 12 12 13 6 4 10 29 11 4 4 5 5 13 25 26 20 20 22 27 30 27 25 23 23 22 20 18 16 14 11 9 8 7 5 5 7 8 9 8 10 11 11 10 10
5 2 2 5 9 11 15 14 13 11 11 24 5 6 9 13 25 18 15 25 24 21 20 26 30 31 28 25 24 23 21 20 18 16 13 11 10 8 7 8 9 9 9 9 10 12 12 12 13
3 3 2 6 10 16 16 13 3 7 3 8 5 5 3 22 22 19 12 12 26 27 26 26 30 33 31 31 28 25 24 22 21 19 16 14 12 10 9 9 10 10 13 11 11 11 12 13 12
3 3 6 8 12 17 15 7 7 4 6 6 4 7 5 7 19 18 19 18 17 32 32 30 29 31 33 33 32 29 27 25 24 22 19 17 15 13 11 10 10 12 14 12 13 14 15 16 16
3 2 5 7 12 17 17 8 1 2 7 3 5 2 2 7 17 17 17 16 22 24 34 35 34 34 35 36 35 33 30 28 28 25 22 20 18 16 13 9 10 12 12 11 12 13 15 15 15
6 3 6 12 11 16 18 12 10 3 4 2 1 1 7 20 14 6 6 1 5 15 36 42 39 38 37 37 37 35 32 30 29 27 25 22 20 18 14 11 11 14 13 12 13 14 14 14 13
12 8 14 13 14 17 13 10 17 16 8 4 5 3 10 28 2 1 1 4 10 15 30 39 39 40 40 36 38 39 36 35 33 31 28 26 22 18 13 12 13 16 13 13 11 10 10 12 14
16 21 15 16 18 19 17 16 15 16 14 7 4 10 16 11 10 7 5 5 13 20 13 30 38 40 41 37 37 38 39 38 36 33 30 27 22 17 14 17 16 16 17 16 12 10 11 11 8
19 21 19 18 20 22 22 19 20 18 13 12 10 13 8 9 8 7 7 11 18 22 20 11 31 39 42 37 36 36 35 36 39 33 32 27 23 20 19 17 17 16 16 19 16 12 13 9 10
25 20 19 20 21 24 23 24 22 22 19 20 14 15 14 10 10 13 17 18 21 27 17 11 20 32 44 39 37 35 35 34 32 31 34 31 26 23 21 18 15 15 10 16 16 15 11 11 12
17 17 22 19 23 23 24 24 21 20 13 15 11 12 11 10 10 12 13 21 23 22 12 14 20 30 44 42 41 38 36 35 30 29 28 31 29 25 19 17 17 14 13 9 9 13 12 11 13
18 19 19 23 21 23 18 28 32 20 15 18 16 19 18 10 10 11 23 25 26 14 12 18 20 29 42 43 40 39 35 33 31 30 29 31 31 25 18 17 15 14 16 16 18 15 11 13 15
17 13 21 21 21 24 16 41 20 15 20 18 24 24 21 12 11 20 20 27 18 14 13 17 22 30 43 45 36 35 33 32 31 30 28 30 28 20 19 17 16 14 15 16 16 18 18 15 16
13 20 22 24 22 17 13 30 21 19 19 24 26 25 22 21 10 17 23 17 19 17 16 18 25 30 39 43 41 27 26 26 27 26 21 23 20 19 18 17 16 15 15 15 15 16 16 18 17
11 21 24 29 13 17 23 29 31 30 23 23 23 17 12 13 12 15 24 28 27 20 21 20 27 31 34 36 33 29 19 22 19 20 22 19 19 18 15 15 17 18 19 18 16 18 18 17 16
12 22 22 16 19 18 23 22 27 22 11 14 17 11 14 10 11 19 15 15 16 10 10 23 24 29 32 32 29 26 21 20 19 18 14 17 16 16 15 17 14 16 18 20 17 17 20 17 16
21 22 23 14 13 14 21 18 24 22 18 21 22 19 11 9 8 7 6 11 13 17 17 18 23 31 33 32 28 29 23 22 19 16 19 16 16 17 14 14 15 15 19 18 17 18 18 14 13
25 25 19 21 12 22 15 16 20 20 11 10 10 9 10 11 10 9 10 10 22 20 20 20 23 31 29 30 25 22 19 18 17 18 19 20 19 14 12 12 13 12 12 15 12 11 14 11 12
23 17 23 21 13 18 7 18 25 16 17 16 16 13 12 10 8 9 9 10 21 22 22 22 23 26 24 28 26 26 19 13 16 18 17 17 16 12 10 9 9 8 9 9 7 7 11 13 14
25 14 19 14 17 16 17 10 26 11 12 6 10 11 11 11 11 12 11 13 24 26 24 22 24 24 23 27 21 18 21 12 17 14 15 15 13 9 6 5 6 6 7 7 6 8 10 12 13
17 17 19 14 12 11 20 15 30 16 14 9 10 10 10 11 13 5 13 24 21 26 26 26 26 21 21 20 18 19 14 10 14 19 17 12 7 6 6 6 6 5 5 5 6 7 8 10 12
15 11 7 9 10 17 14 13 22 6 14 18 14 12 11 9 9 17 18 15 18 22 27 26 24 20 21 20 18 15 14 12 13 10 8 8 4 2 4 5 4 5 4 5 6 5 7 7 9
13 14 10 13 13 16 12 10 10 17 17 22 18 11 5 13 15 15 14 14 18 22 25 24 23 23 19 20 17 14 11 10 8 7 7 6 5 6 6 5 4 3 3 6 5 4 6 6 6
20 17 18 17 11 7 7 14 22 27 22 15 7 6 14 14 15 16 12 11 19 21 24 26 27 22 19 18 16 14 10 9 11 9 8 7 7 9 8 5 3 1 2 4 5 6 5 3 2
10 12 6 11 14 14 6 10 11 10 19 18 10 10 14 14 15 15 13 13 19 22 27 26 25 22 20 18 16 14 13 11 11 8 9 7 8 9 7 5 3 2 1 1 3 4 1 4 8
10 14 11 6 10 12 5 9 15 16 14 14 10 18 18 16 16 14 14 17 21 23 26 27 25 23 22 19 18 15 13 14 11 9 9 9 7 9 7 5 5 3 2 2 1 4 7 6 4
14 20 16 9 13 10 4 9 2 4 9 12 19 18 16 18 16 16 15 14 17 20 24 26 26 23 22 19 17 18 16 12 10 10 10 9 10 8 7 7 7 4 3 2 0 1 1 5 8
Wind_Direction
259 253 162 305 27 187 249 259 246 28 37 14 62 63 342 42 98 158 162 176 169 166 174 176 178 176 172 168 166 165 164 162 153 147 147 143 144 151 158 148 163 170 180 174 189 244 270 281 277
229 160 259 263 183 261 268 253 294 116 177 299 322 151 82 83 83 93 122 175 165 168 177 179 180 180 177 173 173 173 172 171 165 159 158 159 165 170 175 175 191 206 211 212 218 241 263 271 268
190 226 5 176 215 203 236 298 44 48 2 331 327 64 53 114 88 118 151 157 160 169 180 181 181 185 183 179 180 180 179 178 175 171 169 171 178 183 186 198 214 219 224 232 241 249 254 256 263
177 249 281 251 255 263 252 270 52 57 65 272 284 54 78 93 104 112 148 161 163 167 177 188 185 190 189 188 187 186 185 186 184 183 180 182 190 196 206 218 226 232 235 247 256 254 252 249 252
249 267 228 234 257 267 273 268 178 176 191 216 143 249 134 95 114 116 125 168 169 176 180 191 193 192 193 196 194 193 194 194 193 192 190 189 196 204 217 227 233 236 243 252 262 266 265 267 259
274 182 274 240 260 260 268 276 139 187 306 332 116 169 128 127 125 137 142 169 185 187 194 190 195 196 196 198 198 200 200 201 202 199 197 197 198 207 217 224 232 245 246 254 256 262 262 261 257
236 327 237 261 267 280 276 329 63 12 347 31 54 102 161 136 148 160 173 183 207 191 194 194 191 198 201 203 200 201 204 206 208 206 204 203 205 213 220 227 241 247 244 262 268 266 261 260 256
204 202 288 271 272 279 284 337 169 193 251 137 98 24 120 218 175 189 186 208 212 184 198 197 197 196 200 204 205 203 205 210 212 211 210 209 211 221 227 243 243 243 250 252 260 264 267 266 256
223 229 254 252 253 264 299 313 336 289 332 338 103 16 314 313 282 101 187 274 273 194 198 197 197 200 199 204 207 207 206 212 218 218 216 215 217 225 236 239 245 246 240 245 260 264 270 264 258
222 225 228 243 259 274 289 313 296 307 307 328 299 319 325 303 267 120 322 295 295 295 201 203 201 202 201 202 208 208 206 211 217 220 219 219 223 229 236 240 235 248 254 246 253 264 258 257 260
230 239 242 254 259 273 283 293 296 296 295 269 263 175 252 253 282 209 217 274 286 281 260 211 204 205 202 200 206 207 209 210 216 220 223 224 225 229 217 229 238 250 248 244 243 239 239 247 255
241 236 237 249 256 269 275 283 284 285 276 297 296 299 248 274 269 231 222 249 262 267 268 239 214 210 203 198 202 204 205 211 217 219 224 223 219 223 224 228 238 247 249 244 231 236 237 235 237
235 243 244 246 248 254 264 265 266 269 281 282 278 284 283 262 246 236 227 236 254 258 240 233 216 213 204 197 203 205 204 208 213 219 221 218 218 217 223 237 236 246 227 236 235 231 225 212 216
265 250 246 243 247 254 257 263 265 259 265 280 278 279 277 266 255 258 243 241 248 252 225 246 214 214 202 195 202 205 205 208 208 216 218 215 212 212 229 232 234 230 231 233 228 235 227 234 244
266 272 277 255 244 249 263 271 259 273 272 281 285 290 278 262 262 244 257 253 249 219 235 238 214 212 206 200 201 202 202 204 206 210 212 211 207 215 220 233 237 251 247 249 251 244 236 241 253
264 275 258 258 259 255 254 262 270 269 273 278 283 274 272 252 246 268 285 267 212 213 239 243 210 205 206 201 195 202 201 198 205 203 198 200 203 206 217 232 239 253 263 250 246 255 249 245 247
231 238 250 255 241 247 237 267 269 265 259 256 257 260 262 254 244 258 270 233 242 249 266 236 207 203 205 206 195 182 184 190 183 178 184 190 195 204 218 234 239 244 254 247 260 254 244 242 244
216 223 234 246 242 237 238 250 263 263 259 255 259 253 244 238 226 236 263 270 242 238 249 234 203 198 199 195 192 192 181 184 163 188 199 195 199 212 229 239 238 245 253 258 259 248 237 240 243
260 236 245 247 237 257 254 260 269 265 256 265 272 264 261 227 224 230 246 256 238 236 209 203 191 190 186 174 172 181 167 173 184 196 192 197 207 213 225 232 235 251 254 267 261 244 238 232 238
246 264 261 271 249 251 257 254 255 253 256 250 251 252 248 236 246 260 262 244 199 160 158 159 174 179 175 170 169 178 175 167 168 189 204 208 197 197 214 248 251 257 269 269 268 250 245 238 229
229 240 254 258 287 284 298 292 278 281 272 257 247 244 233 213 216 221 232 189 155 148 143 149 162 167 167 164 163 168 168 170 191 206 206 204 204 209 222 248 262 269 274 277 285 256 241 234 231
242 233 239 254 252 257 248 271 265 269 266 261 266 258 249 240 235 224 230 145 153 149 146 144 148 155 152 162 164 167 159 171 196 203 197 195 193 206 221 248 264 276 274 274 279 245 235 233 237
250 236 251 241 241 258 252 262 267 211 238 270 267 250 244 237 218 222 224 142 144 142 139 146 150 147 152 161 161 165 170 160 174 192 146 146 164 184 196 223 262 264 252 259 255 240 232 233 236
262 242 251 259 258 260 238 233 266 243 248 243 257 260 251 250 227 138 111 121 125 135 137 142 144 136 146 156 158 152 144 181 149 144 142 151 172 231 238 230 248 256 258 248 247 245 237 230 232
258 225 245 237 233 239 218 235 239 259 222 239 245 252 261 251 121 125 130 132 133 127 131 141 145 142 137 150 156 160 136 124 118 120 141 146 178 215 200 201 198 220 243 249 238 231 225 230 227
252 230 217 214 219 251 262 243 238 242 245 242 251 240 125 106 116 122 127 128 129 129 134 141 145 142 136 142 140 137 134 131 136 130 144 165 180 190 171 166 195 215 236 243 226 221 238 248 254
252 251 230 252 279 245 243 236 264 259 257 252 219 166 128 123 125 124 123 123 128 132 141 143 146 143 139 143 142 141 137 147 128 122 141 141 158 157 157 165 152 154 225 252 231 226 227 206 177
258 251 241 221 234 255 243 243 253 274 249 228 192 136 130 125 123 127 125 126 133 140 146 147 148 148 148 155 152 149 142 140 138 134 142 142 158 163 164 147 148 124 107 224 233 230 161 105 101
290 242 243 278 210 235 254 268 254 245 213 193 157 142 135 131 133 132 129 132 138 140 147 151 154 155 158 159 160 165 160 145 146 130 143 157 144 163 160 143 138 134 113 80 148 171 145 128 99
272 283 239 225 228 238 215 265 249 108 146 135 144 141 136 133 136 133 134 135 137 141 147 153 156 159 162 168 172 162 151 150 146 143 151 159 159 180 195 182 139 125 118 109 178 300 167 172 121